Location: Caltech
(34.1382°N, 118.1253°W)
Time: 17:29:30
(UTC-07:00)

Cosmos 1833 - Visible Passes

Search period start: 22 August 2017 00:00
Search period end: 01 September 2017 00:00
Orbit: 827 x 871 km, 70.9° (Epoch: 22 August)

Date Brightness Start Highest point End Pass type
(mag) Time Alt. Az. Time Alt. Az. Time Alt. Az.
23 Aug 5.6 05:50:33 10° S 05:55:59 43° ESE 06:01:27 10° NE visible
24 Aug 5.5 05:37:50 10° S 05:43:17 43° ESE 05:48:44 10° NE visible
25 Aug 5.5 05:25:09 10° S 05:30:34 43° ESE 05:36:01 10° NE visible
26 Aug 5.5 05:12:27 10° S 05:17:52 42° ESE 05:23:18 10° NE visible
27 Aug 5.4 04:59:45 10° S 05:05:10 42° ESE 05:10:35 10° NE visible
28 Aug 5.4 04:47:03 10° S 04:52:27 41° ESE 04:57:51 10° NE visible
29 Aug 5.4 04:34:22 10° S 04:39:45 41° ESE 04:45:09 10° NE visible
30 Aug 5.4 04:22:52 16° SSE 04:27:03 41° ESE 04:32:26 10° NE visible
31 Aug 5.3 04:11:20 23° SSE 04:14:21 40° ESE 04:19:43 10° NE visible
31 Aug 5.4 05:53:56 10° WSW 05:58:39 25° WNW 06:03:23 10° N visible
